Time[GMT],significant_wave_height[m](0m),dominant_wave_period[s](0m)
2015-06-04 11:00, 0.65,8.0
2015-06-04 12:00, 0.57,8.0
2015-06-04 14:00, 0.57,8.0
2015-06-04 15:00, 0.69,8.0
2015-06-04 16:00, 0.60,8.0
2015-06-04 17:00, 0.69,8.0
2015-06-04 18:00, 0.57,8.0
2015-06-04 19:00, 0.57,8.0
2015-06-04 20:00, 0.51,8.0
2015-06-04 21:00, 0.47,10.7
2015-06-04 23:00, 0.54,8.0
2015-06-05 00:00, 0.56,10.7
2015-06-05 01:00, 0.62,8.0
2015-06-05 02:00, 0.60,8.0
2015-06-05 03:00, 0.58,8.0
2015-06-05 04:00, 0.47,8.0
2015-06-05 05:00, 0.56,8.0
2015-06-05 06:00, 0.60,8.0
2015-06-05 07:00, 0.45,10.7
2015-06-05 09:00, 0.48,8.0
2015-06-05 10:00, 0.44,10.7
2015-06-05 11:00, 0.47,8.0
2015-06-05 12:00, 0.54,8.0
2015-06-05 13:00, 0.50,8.0
2015-06-05 14:00, 0.55,8.0
2015-06-05 15:00, 0.54,8.0
2015-06-05 16:00, 0.61,8.0
2015-06-05 18:00, 0.70,8.0
2015-06-05 19:00, 0.83,8.0
2015-06-05 20:00, 0.64,8.0
2015-06-05 21:00, 0.65,8.0
2015-06-05 22:00, 0.45,3.6
2015-06-05 23:00, 0.60,8.0
2015-06-06 00:00, 0.38,3.2
2015-06-06 01:00, 0.54,8.0
2015-06-06 03:00, 0.53,8.0
2015-06-06 04:00, 0.54,8.0
2015-06-06 05:00, 0.64,10.7
2015-06-06 06:00, 0.49,8.0
2015-06-06 07:00, 0.52,8.0
2015-06-06 08:00, 0.42,8.0
2015-06-06 09:00, 0.49,8.0
2015-06-06 10:00, 0.40,8.0
2015-06-06 11:00, 0.42,8.0
2015-06-06 13:00, 0.51,8.0
2015-06-06 14:00, 0.66,8.0
2015-06-06 15:00, 0.67,8.0
2015-06-06 16:00, 0.50,2.7
2015-06-06 17:00, 0.62,8.0
2015-06-06 18:00, 0.72,8.0
2015-06-06 19:00, 0.69,8.0
2015-06-06 20:00, 0.61,8.0
2015-06-06 22:00, 0.60,6.4
2015-06-06 23:00, 0.69,8.0
2015-06-07 00:00, 0.54,6.4
2015-06-07 01:00, 0.62,6.4
2015-06-07 02:00, 0.53,8.0
2015-06-07 03:00, 0.63,6.4
2015-06-07 04:00, 0.58,8.0
2015-06-07 05:00, 0.66,8.0
2015-06-07 06:00, 0.69,8.0
2015-06-07 08:00, 0.28,2.3
2015-06-07 09:00, 0.80,8.0
2015-06-07 10:00, 0.75,10.7
2015-06-07 11:00, 0.75,8.0
2015-06-07 12:00, 0.72,8.0
2015-06-07 13:00, 0.67,8.0
2015-06-07 14:00, 0.69,8.0
2015-06-07 15:00, 0.65,8.0
2015-06-07 17:00, 0.58,8.0
2015-06-07 18:00, 0.67,8.0
2015-06-07 19:00, 0.65,8.0
2015-06-07 20:00, 0.63,8.0
2015-06-07 21:00, 0.29,2.3
2015-06-07 22:00, 0.40,2.5
2015-06-07 23:00, 0.72,8.0
2015-06-08 00:00, 0.57,2.9
2015-06-08 01:00, 0.99,8.0
2015-06-08 03:00, 1.12,10.7
2015-06-08 04:00,,
2015-06-08 05:00, 1.02,10.7
2015-06-08 06:00, 0.88,10.7
2015-06-08 07:00, 0.89,10.7
2015-06-08 08:00,,
2015-06-08 09:00, 0.97,10.7
2015-06-08 10:00, 0.62,4.0
2015-06-08 12:00, 0.64,4.0
2015-06-08 13:00, 1.26,10.7
2015-06-08 14:00,,
2015-06-08 15:00, 0.88,4.0
2015-06-08 16:00,,
2015-06-08 17:00,,
2015-06-08 18:00, 1.04,4.0
2015-06-08 19:00, 1.05,4.6
2015-06-08 21:00, 1.20,5.3
2015-06-08 23:00, 1.50,5.3
2015-06-09 00:00, 1.27,5.3
2015-06-09 01:00, 1.15,5.3
2015-06-09 02:00, 1.37,5.3
2015-06-09 03:00, 1.00,5.3
2015-06-09 04:00, 1.30,10.7
2015-06-09 05:00, 1.00,4.6
2015-06-09 07:00, 0.98,4.6
2015-06-09 08:00, 0.93,4.6
2015-06-09 09:00, 1.14,5.3
2015-06-09 10:00, 1.00,5.3
2015-06-09 11:00, 0.92,5.3
2015-06-09 12:00, 0.93,4.6
2015-06-09 13:00, 1.03,4.6
2015-06-09 14:00, 0.76,5.3
2015-06-09 16:00, 0.68,4.6
2015-06-09 17:00, 0.76,4.6
2015-06-09 18:00, 0.92,4.0
2015-06-09 19:00, 1.27,10.7
2015-06-09 20:00, 0.94,4.6
2015-06-09 21:00, 0.83,4.6
2015-06-09 22:00, 0.80,4.6
2015-06-09 23:00, 1.14,10.7
2015-06-10 00:00, 0.88,5.3
2015-06-10 02:00, 1.11,10.7
2015-06-10 03:00, 1.04,10.7
2015-06-10 04:00, 1.03,10.7
2015-06-10 05:00,,
2015-06-10 06:00, 0.89,8.0
2015-06-10 07:00, 0.82,6.4
2015-06-10 08:00, 0.75,6.4
2015-06-10 09:00, 0.94,5.3
2015-06-10 11:00, 0.56,4.6
2015-06-10 12:00, 0.71,10.7
2015-06-10 13:00, 0.73,10.7
2015-06-10 14:00, 0.72,10.7
2015-06-10 15:00, 0.74,10.7
2015-06-10 16:00, 0.69,10.7
2015-06-10 17:00, 0.83,8.0
2015-06-10 18:00, 0.70,8.0
2015-06-10 19:00, 0.70,10.7
2015-06-10 21:00, 0.72,6.4
2015-06-10 23:00, 0.32,2.9
2015-06-11 00:00, 0.71,8.0
2015-06-11 01:00, 0.83,8.0
2015-06-11 02:00, 0.92,8.0
2015-06-11 03:00, 0.92,8.0
2015-06-11 04:00, 0.74,8.0
2015-06-11 06:00, 0.66,8.0
2015-06-11 07:00, 0.44,3.6
2015-06-11 08:00, 0.52,3.6
2015-06-11 09:00, 0.92,10.7
2015-06-11 10:00, 0.69,4.0
2015-06-11 11:00, 0.77,3.6
2015-06-11 12:00, 0.59,4.0
2015-06-11 13:00, 0.64,4.0
2015-06-11 15:00, 0.54,3.6
2015-06-11 16:00, 0.87,10.7
2015-06-11 17:00,,
2015-06-11 18:00, 0.45,3.6
2015-06-11 19:00, 0.71,8.0
2015-06-11 20:00, 0.73,10.7
2015-06-11 21:00, 0.63,8.0
2015-06-11 22:00, 0.65,3.6
2015-06-11 23:00, 0.72,8.0
2015-06-12 01:00, 0.33,3.6
2015-06-12 02:00, 0.69,10.7
2015-06-12 03:00, 0.33,4.6
2015-06-12 04:00, 0.47,8.0
2015-06-12 05:00, 0.44,8.0
2015-06-12 06:00, 0.41,8.0
2015-06-12 07:00, 0.50,8.0
2015-06-12 08:00, 0.51,10.7
2015-06-12 10:00, 0.49,8.0
2015-06-12 11:00, 0.44,10.7
2015-06-12 12:00, 0.51,10.7
2015-06-12 13:00, 0.53,10.7
2015-06-12 14:00, 0.48,10.7
2015-06-12 15:00, 0.51,10.7
2015-06-12 16:00, 0.41,8.0
2015-06-12 17:00, 0.44,8.0
2015-06-12 18:00, 0.50,8.0
2015-06-12 20:00, 0.51,8.0
2015-06-12 21:00, 0.57,10.7
2015-06-12 22:00, 0.48,6.4
2015-06-12 23:00, 0.54,5.3
2015-06-13 00:00, 0.61,6.4
2015-06-13 01:00, 0.66,6.4
2015-06-13 02:00, 0.70,3.2
2015-06-13 03:00, 0.58,3.6
2015-06-13 05:00, 0.62,3.6
2015-06-13 06:00, 0.51,3.6
2015-06-13 07:00, 0.56,3.6
2015-06-13 08:00, 0.50,4.0
2015-06-13 09:00, 0.51,3.6
2015-06-13 10:00, 0.45,6.4
2015-06-13 11:00, 0.59,8.0
2015-06-13 12:00, 0.56,2.3
2015-06-13 13:00, 0.56,2.9
2015-06-13 15:00, 0.29,4.0
2015-06-13 16:00, 0.42,8.0
2015-06-13 17:00, 0.41,8.0
2015-06-13 18:00, 0.36,8.0
2015-06-13 19:00, 0.44,8.0
2015-06-13 20:00, 0.51,8.0
2015-06-13 21:00, 0.48,8.0
2015-06-13 22:00, 0.48,8.0
2015-06-14 00:00, 0.49,10.7
2015-06-14 01:00, 0.45,6.4
2015-06-14 02:00, 0.46,8.0
2015-06-14 03:00, 0.42,8.0
2015-06-14 04:00, 0.39,8.0
2015-06-14 05:00, 0.42,8.0
2015-06-14 06:00, 0.46,8.0
2015-06-14 07:00, 0.42,8.0
2015-06-14 08:00, 0.44,8.0
2015-06-14 10:00, 0.60,8.0
2015-06-14 11:00, 0.46,10.7
2015-06-14 12:00, 0.51,10.7
2015-06-14 13:00, 0.51,6.4
2015-06-14 14:00, 0.45,10.7
2015-06-14 15:00, 0.41,8.0
2015-06-14 16:00, 0.43,8.0
2015-06-14 17:00, 0.51,8.0
2015-06-14 19:00, 0.55,8.0
2015-06-14 20:00, 0.53,10.7
2015-06-14 21:00, 0.46,10.7
2015-06-14 22:00, 0.23,1.9
2015-06-14 23:00, 0.42,6.4
2015-06-15 00:00, 0.29,2.5
2015-06-15 01:00, 0.35,5.3
2015-06-15 02:00, 0.38,6.4
2015-06-15 04:00, 0.37,2.9
2015-06-15 05:00, 0.35,2.9
2015-06-15 06:00, 0.37,2.9
2015-06-15 07:00, 0.36,2.9
2015-06-15 08:00, 0.30,2.7
2015-06-15 09:00, 0.27,2.9
2015-06-15 10:00, 0.25,2.7
2015-06-15 11:00, 0.30,2.9
2015-06-15 12:00, 0.36,2.9
2015-06-15 14:00, 0.31,2.9
2015-06-15 15:00, 0.45,2.9
2015-06-15 16:00, 0.57,3.6
2015-06-15 17:00, 0.47,3.6
2015-06-15 18:00, 0.48,3.6
2015-06-15 19:00, 0.54,3.6
2015-06-15 20:00, 0.55,2.9
2015-06-15 21:00, 0.63,3.6
2015-06-15 23:00, 0.85,4.0
2015-06-16 00:00, 0.94,4.6
2015-06-16 01:00, 0.82,4.6
2015-06-16 02:00, 0.75,4.6
2015-06-16 03:00, 0.77,4.6
2015-06-16 04:00, 0.68,4.0
2015-06-16 05:00, 0.62,4.6
2015-06-16 06:00, 0.64,4.6
2015-06-16 07:00, 0.68,5.3
2015-06-16 09:00, 0.62,5.3
2015-06-16 10:00, 0.65,5.3
2015-06-16 11:00, 0.74,5.3
2015-06-16 12:00, 0.87,5.3
2015-06-16 13:00, 0.82,5.3
2015-06-16 14:00, 0.81,5.3
2015-06-16 15:00, 0.84,6.4
2015-06-16 16:00, 0.86,5.3
2015-06-16 18:00, 0.73,5.3
2015-06-16 19:00, 0.63,5.3
2015-06-16 20:00, 0.63,6.4
2015-06-16 21:00, 0.63,5.3
2015-06-16 22:00, 0.62,5.3
2015-06-16 23:00, 0.58,6.4
2015-06-17 00:00, 0.66,6.4
2015-06-17 01:00, 0.63,6.4
2015-06-17 03:00, 0.72,5.3
2015-06-17 04:00, 0.73,6.4
2015-06-17 05:00, 0.63,6.4
2015-06-17 06:00, 0.66,8.0
2015-06-17 07:00, 0.67,8.0
2015-06-17 08:00, 0.76,8.0
2015-06-17 09:00, 0.73,8.0
2015-06-17 10:00, 0.83,8.0
2015-06-17 11:00, 0.75,8.0
2015-06-17 13:00, 1.06,8.0
2015-06-17 14:00, 0.96,8.0
2015-06-17 15:00, 0.92,8.0
2015-06-17 16:00, 0.88,8.0
2015-06-17 17:00, 0.82,8.0
2015-06-17 18:00, 0.78,8.0
2015-06-17 19:00, 0.66,8.0
2015-06-17 20:00, 0.54,8.0
2015-06-17 22:00, 0.58,6.4
2015-06-17 23:00, 0.54,8.0
2015-06-18 00:00, 0.46,6.4
2015-06-18 01:00, 0.46,6.4
2015-06-18 02:00, 0.50,8.0
2015-06-18 03:00, 0.44,8.0
2015-06-18 04:00, 0.42,8.0
2015-06-18 05:00, 0.40,6.4
2015-06-18 06:00, 0.38,8.0
2015-06-18 08:00, 0.29,2.5
2015-06-18 09:00, 0.20,2.1
2015-06-18 10:00, 0.38,8.0
2015-06-18 11:00, 0.35,8.0
2015-06-18 12:00, 0.37,6.4
2015-06-18 13:00, 0.39,6.4
2015-06-18 14:00, 0.41,8.0
2015-06-18 15:00, 0.36,8.0
2015-06-18 17:00, 0.42,8.0
2015-06-18 18:00, 0.32,2.1
2015-06-18 19:00, 0.57,8.0
2015-06-18 20:00, 0.43,2.7
2015-06-18 21:00, 0.67,8.0
2015-06-18 22:00, 0.77,3.2
2015-06-18 23:00, 0.79,3.6
2015-06-19 00:00, 0.82,3.6
2015-06-19 01:00, 0.98,4.0
2015-06-19 03:00, 0.84,4.0
2015-06-19 04:00, 0.57,4.0
2015-06-19 05:00, 0.66,4.0
2015-06-19 06:00, 0.60,4.0
2015-06-19 07:00, 0.51,4.0
2015-06-19 08:00, 0.49,3.2
2015-06-19 09:00, 0.58,8.0
2015-06-19 10:00, 0.46,3.6
2015-06-19 12:00, 0.44,8.0
2015-06-19 13:00, 0.45,8.0
2015-06-19 14:00, 0.21,2.9
2015-06-19 15:00, 0.45,8.0
2015-06-19 16:00, 0.47,8.0
2015-06-19 17:00, 0.44,8.0
2015-06-19 18:00, 0.44,8.0
2015-06-19 19:00, 0.41,8.0
2015-06-19 21:00, 0.38,8.0
2015-06-19 22:00, 0.33,6.4
2015-06-19 23:00, 0.40,8.0
2015-06-20 00:00, 0.40,6.4
2015-06-20 01:00, 0.42,6.4
2015-06-20 02:00, 0.47,6.4
2015-06-20 03:00, 0.44,6.4
2015-06-20 04:00, 0.51,8.0
2015-06-20 05:00, 0.48,6.4
2015-06-20 07:00, 0.45,8.0
2015-06-20 08:00, 0.48,8.0
2015-06-20 09:00, 0.41,2.7
2015-06-20 10:00, 0.37,3.2
2015-06-20 11:00, 0.52,8.0
2015-06-20 12:00, 0.43,8.0
2015-06-20 13:00, 0.47,8.0
2015-06-20 14:00, 0.55,8.0
2015-06-20 16:00, 0.50,8.0
2015-06-20 17:00, 0.53,6.4
2015-06-20 18:00, 0.47,6.4
2015-06-20 19:00, 0.43,6.4
2015-06-20 20:00, 0.68,8.0
2015-06-20 21:00, 0.75,3.2
2015-06-20 22:00, 0.89,4.0
2015-06-20 23:00, 1.00,4.6
2015-06-21 00:00, 0.96,4.0
2015-06-21 02:00, 0.69,3.6
2015-06-21 03:00, 0.59,8.0
2015-06-21 04:00, 0.61,8.0
2015-06-21 05:00, 0.62,8.0
2015-06-21 06:00, 0.48,3.6
2015-06-21 07:00, 0.76,3.6
2015-06-21 08:00, 1.02,4.0
2015-06-21 09:00, 1.03,4.6
2015-06-21 11:00, 1.11,4.6
2015-06-21 12:00, 1.06,4.6
2015-06-21 13:00, 0.85,4.0
2015-06-21 14:00, 0.94,5.3
2015-06-21 15:00, 1.05,5.3
2015-06-21 16:00, 1.12,5.3
2015-06-21 17:00, 1.14,5.3
2015-06-21 18:00, 1.03,5.3
2015-06-21 19:00, 1.05,6.4
2015-06-21 21:00, 1.01,6.4
2015-06-21 22:00, 0.81,6.4
2015-06-21 23:00, 0.82,6.4
2015-06-22 00:00, 0.78,8.0
2015-06-22 01:00, 0.78,6.4
2015-06-22 02:00, 0.84,6.4
2015-06-22 03:00, 0.74,6.4
2015-06-22 04:00, 0.75,6.4
2015-06-22 06:00, 0.78,6.4
2015-06-22 07:00, 0.86,6.4
2015-06-22 08:00, 0.82,6.4
2015-06-22 09:00, 0.77,10.7
2015-06-22 10:00, 0.75,8.0
2015-06-22 11:00, 0.85,8.0
2015-06-22 12:00, 0.76,8.0
2015-06-22 13:00, 0.96,10.7
2015-06-22 15:00, 0.99,8.0
2015-06-22 16:00, 0.85,8.0
2015-06-22 17:00, 0.95,8.0
2015-06-22 18:00, 0.84,8.0
2015-06-22 19:00, 0.76,8.0
2015-06-22 20:00, 0.76,6.4
2015-06-22 21:00, 0.62,8.0
2015-06-22 22:00, 0.76,8.0
2015-06-22 23:00, 0.72,8.0
2015-06-23 01:00, 0.70,8.0
2015-06-23 02:00, 0.68,8.0
2015-06-23 03:00, 0.75,8.0
2015-06-23 04:00, 0.70,8.0
2015-06-23 05:00, 0.70,8.0
2015-06-23 06:00, 0.67,8.0
2015-06-23 07:00, 0.65,6.4
2015-06-23 08:00, 0.63,4.0
2015-06-23 10:00, 0.66,5.3
2015-06-23 11:00, 0.65,4.6
2015-06-23 12:00, 0.70,8.0
2015-06-23 13:00, 0.87,8.0
2015-06-23 14:00, 0.68,3.2
2015-06-23 15:00, 1.03,3.6
2015-06-23 16:00, 0.94,3.6
2015-06-23 17:00,,
2015-06-23 18:00, 0.78,4.0
2015-06-23 20:00, 0.88,4.6
2015-06-23 21:00, 0.85,4.6
2015-06-23 22:00, 0.90,4.6
2015-06-23 23:00, 0.75,5.3
2015-06-24 00:00, 0.82,5.3
2015-06-24 01:00, 0.82,4.6
2015-06-24 02:00, 0.81,6.4
2015-06-24 03:00, 0.80,6.4
2015-06-24 05:00, 0.56,8.0
2015-06-24 06:00, 0.57,8.0
2015-06-24 07:00, 0.54,6.4
2015-06-24 08:00, 0.56,6.4
2015-06-24 09:00, 0.59,8.0
2015-06-24 10:00, 0.41,8.0
2015-06-24 11:00, 0.39,5.3
2015-06-24 12:00, 0.33,2.5
2015-06-24 13:00, 0.34,2.5
2015-06-24 15:00, 0.48,2.7
2015-06-24 16:00, 0.35,2.5
2015-06-24 17:00, 0.28,2.5
2015-06-24 18:00, 0.58,8.0
2015-06-24 19:00, 0.56,8.0
2015-06-24 20:00, 0.53,8.0
2015-06-24 21:00, 0.50,6.4
2015-06-24 22:00, 0.50,6.4
2015-06-25 00:00, 0.44,8.0
2015-06-25 01:00, 0.53,8.0
2015-06-25 02:00, 0.42,8.0
2015-06-25 03:00, 0.34,8.0
2015-06-25 04:00, 0.40,6.4
2015-06-25 05:00, 0.47,8.0
2015-06-25 06:00, 0.47,8.0
2015-06-25 07:00, 0.48,8.0
2015-06-25 09:00, 0.49,8.0
2015-06-25 10:00, 0.41,8.0
2015-06-25 11:00, 0.38,8.0
2015-06-25 12:00, 0.36,8.0
2015-06-25 13:00, 0.36,8.0
2015-06-25 14:00, 0.37,8.0
2015-06-25 15:00, 0.34,8.0
2015-06-25 16:00, 0.34,8.0
2015-06-25 17:00, 0.36,8.0
2015-06-25 19:00, 0.38,8.0
2015-06-25 20:00, 0.40,8.0
2015-06-25 21:00, 0.44,8.0
2015-06-25 22:00, 0.38,8.0
2015-06-25 23:00, 0.39,8.0
2015-06-26 00:00, 0.22,2.5
2015-06-26 01:00, 0.35,8.0
2015-06-26 02:00, 0.24,2.9
2015-06-26 04:00, 0.39,8.0
2015-06-26 05:00, 0.30,8.0
2015-06-26 06:00, 0.29,8.0
2015-06-26 07:00, 0.30,10.7
2015-06-26 08:00, 0.43,8.0
2015-06-26 09:00, 0.42,8.0
2015-06-26 10:00, 0.49,2.7
2015-06-26 11:00, 0.74,2.9
2015-06-26 12:00, 0.59,2.9
2015-06-26 14:00, 0.52,3.2
2015-06-26 15:00, 0.57,4.0
2015-06-26 16:00, 0.54,8.0
2015-06-26 17:00, 0.51,3.6
2015-06-26 18:00, 0.60,8.0
2015-06-26 19:00, 0.50,3.2
2015-06-26 20:00, 0.48,3.6
2015-06-26 21:00, 0.46,3.6
2015-06-26 23:00, 0.51,8.0
2015-06-27 00:00, 0.33,3.6
2015-06-27 01:00, 0.30,3.2
2015-06-27 02:00, 0.37,8.0
2015-06-27 03:00, 0.37,8.0
2015-06-27 04:00, 0.36,8.0
2015-06-27 05:00, 0.38,8.0
2015-06-27 06:00, 0.38,8.0
2015-06-27 07:00, 0.38,8.0
2015-06-27 09:00, 0.49,8.0
2015-06-27 10:00, 0.39,8.0
2015-06-27 11:00, 0.37,6.4
2015-06-27 12:00, 0.33,8.0
2015-06-27 13:00, 0.27,6.4
2015-06-27 14:00, 0.32,8.0
2015-06-27 15:00, 0.40,10.7
2015-06-27 16:00, 0.21,3.6
2015-06-27 18:00, 0.33,10.7
2015-06-27 19:00, 0.44,10.7
2015-06-27 20:00, 0.29,2.1
2015-06-27 21:00, 0.38,2.5
2015-06-27 22:00, 0.65,2.9
2015-06-27 23:00, 0.62,3.2
2015-06-28 00:00, 0.62,3.6
2015-06-28 01:00, 0.59,3.6
2015-06-28 03:00, 0.66,3.6
2015-06-28 04:00, 0.67,3.6
2015-06-28 05:00, 0.74,3.6
2015-06-28 06:00, 0.82,3.6
2015-06-28 07:00, 0.84,4.0
2015-06-28 08:00, 1.25,4.6
2015-06-28 09:00, 1.29,4.6
2015-06-28 10:00, 1.68,4.6
2015-06-28 11:00, 1.76,6.4
2015-06-28 13:00, 2.72,6.4
2015-06-28 14:00, 3.20,8.0
2015-06-28 15:00, 3.39,8.0
2015-06-28 16:00, 3.58,8.0
2015-06-28 17:00, 3.72,8.0
2015-06-28 18:00, 3.70,10.7
2015-06-28 19:00, 3.29,8.0
2015-06-28 20:00, 3.75,10.7
2015-06-28 22:00,,
2015-06-28 23:00, 3.55,10.7
2015-06-29 00:00, 2.70,8.0
2015-06-29 01:00, 2.62,10.7
2015-06-29 02:00,,
2015-06-29 03:00, 2.35,8.0
2015-06-29 04:00, 2.55,10.7
2015-06-29 05:00, 2.15,10.7
2015-06-29 06:00, 2.32,8.0
2015-06-29 08:00, 2.01,8.0
2015-06-29 09:00, 1.77,10.7
2015-06-29 10:00, 1.81,10.7
2015-06-29 11:00, 1.47,8.0
2015-06-29 12:00, 1.34,10.7
2015-06-29 13:00, 1.46,8.0
2015-06-29 14:00, 1.33,8.0
2015-06-29 15:00, 1.33,10.7
2015-06-29 17:00, 1.16,10.7
2015-06-29 18:00, 1.31,10.7
2015-06-29 19:00, 1.10,8.0
2015-06-29 20:00, 1.04,10.7
2015-06-29 21:00, 1.08,10.7
2015-06-29 22:00, 1.21,10.7
2015-06-29 23:00, 1.05,8.0
2015-06-30 00:00, 1.26,8.0
2015-06-30 01:00, 1.23,8.0
2015-06-30 03:00, 1.05,8.0
2015-06-30 04:00, 1.24,10.7
2015-06-30 05:00, 1.14,8.0
2015-06-30 06:00, 0.95,10.7
2015-06-30 07:00, 0.86,8.0
2015-06-30 08:00, 0.90,8.0
2015-06-30 09:00, 0.92,8.0
2015-06-30 10:00, 0.98,10.7
2015-06-30 12:00, 0.87,10.7
2015-06-30 13:00, 0.97,10.7
2015-06-30 14:00, 0.95,10.7
2015-06-30 15:00, 0.99,10.7
2015-06-30 16:00, 0.87,8.0
2015-06-30 17:00, 0.79,8.0
2015-06-30 18:00, 0.85,8.0
2015-06-30 19:00, 0.93,8.0
2015-06-30 20:00, 0.95,8.0
2015-06-30 22:00, 0.98,8.0
2015-06-30 23:00, 0.79,8.0
2015-07-01 00:00, 1.03,8.0
2015-07-01 01:00, 0.95,8.0
2015-07-01 02:00, 0.80,8.0
2015-07-01 03:00, 0.82,8.0
2015-07-01 04:00, 0.75,8.0
2015-07-01 05:00, 0.72,8.0
2015-07-01 07:00, 0.70,10.7
2015-07-01 08:00, 0.66,8.0
2015-07-01 09:00, 0.64,8.0
2015-07-01 10:00, 0.78,8.0
2015-07-01 11:00, 0.91,8.0
2015-07-01 12:00, 0.92,8.0
2015-07-01 13:00, 0.90,8.0
2015-07-01 14:00, 0.98,8.0
2015-07-01 16:00, 1.30,4.6
2015-07-01 17:00, 1.32,4.6
2015-07-01 18:00, 1.24,4.6
2015-07-01 19:00, 1.09,4.6
2015-07-01 20:00, 0.92,4.6
2015-07-01 21:00, 0.71,4.6
2015-07-01 22:00, 0.85,8.0
2015-07-01 23:00, 0.76,8.0
2015-07-02 00:00, 0.78,4.6
2015-07-02 02:00, 0.65,6.4
2015-07-02 03:00, 0.73,4.6
2015-07-02 04:00, 0.67,4.6
2015-07-02 05:00, 0.60,4.0
2015-07-02 06:00, 0.66,4.0
2015-07-02 07:00, 0.72,8.0
2015-07-02 08:00, 0.65,8.0
2015-07-02 09:00, 0.68,8.0
2015-07-02 11:00, 0.80,8.0
2015-07-02 12:00, 0.70,8.0
2015-07-02 13:00, 0.75,8.0
2015-07-02 14:00, 0.76,8.0
2015-07-02 15:00, 0.68,6.4
2015-07-02 16:00, 0.67,6.4
2015-07-02 17:00, 0.60,8.0
2015-07-02 18:00, 0.53,8.0
2015-07-02 19:00, 0.65,8.0
2015-07-02 21:00, 0.68,8.0
2015-07-02 22:00, 0.77,8.0
2015-07-02 23:00, 0.75,8.0
2015-07-03 00:00, 0.85,8.0
2015-07-03 01:00, 0.74,8.0
2015-07-03 02:00, 0.71,8.0
2015-07-03 03:00, 0.66,6.4
2015-07-03 04:00, 0.54,8.0
2015-07-03 06:00, 0.56,8.0
2015-07-03 07:00, 0.62,8.0
2015-07-03 08:00, 0.55,8.0
2015-07-03 09:00, 0.52,8.0
2015-07-03 10:00, 0.54,8.0
2015-07-03 11:00, 0.63,8.0
2015-07-03 12:00, 0.63,8.0
2015-07-03 13:00, 0.71,8.0
2015-07-03 15:00, 0.58,6.4
2015-07-03 16:00, 0.52,6.4
2015-07-03 17:00, 0.49,8.0
2015-07-03 18:00, 0.48,8.0
2015-07-03 19:00, 0.48,8.0
2015-07-03 20:00, 0.43,8.0
2015-07-03 21:00, 0.51,8.0
2015-07-03 22:00, 0.54,8.0
2015-07-03 23:00, 0.69,8.0
2015-07-04 01:00, 0.65,8.0
2015-07-04 02:00, 0.32,2.5
2015-07-04 03:00, 0.43,2.7
2015-07-04 04:00, 0.39,3.2
2015-07-04 05:00, 0.40,3.2
2015-07-04 06:00, 0.33,3.2
2015-07-04 07:00, 0.64,10.7
2015-07-04 08:00, 0.34,2.9
2015-07-04 10:00, 0.72,8.0
2015-07-04 11:00, 0.64,8.0
2015-07-04 12:00, 0.56,8.0
2015-07-04 13:00, 0.73,8.0
2015-07-04 14:00, 0.66,8.0
2015-07-04 15:00, 0.68,8.0
2015-07-04 16:00, 0.67,6.4
2015-07-04 17:00, 0.58,8.0
2015-07-04 18:00, 0.60,10.7
2015-07-04 20:00, 0.57,8.0
2015-07-04 21:00, 0.56,8.0
2015-07-04 22:00, 0.60,8.0
2015-07-04 23:00, 0.58,8.0
2015-07-05 00:00, 0.63,8.0
2015-07-05 01:00, 0.53,8.0
2015-07-05 02:00, 0.53,6.4
2015-07-05 03:00, 0.53,8.0
2015-07-05 05:00, 0.40,8.0
2015-07-05 06:00, 0.46,8.0
2015-07-05 07:00, 0.46,8.0
2015-07-05 08:00, 0.44,8.0
2015-07-05 09:00, 0.40,8.0
2015-07-05 10:00, 0.45,8.0
2015-07-05 11:00, 0.45,8.0
2015-07-05 12:00, 0.54,8.0
2015-07-05 13:00, 0.54,8.0
2015-07-05 15:00, 0.49,8.0
2015-07-05 16:00, 0.45,8.0
2015-07-05 17:00, 0.42,8.0
2015-07-05 18:00, 0.45,8.0
2015-07-05 19:00, 0.51,8.0
2015-07-05 20:00, 0.47,8.0
2015-07-05 21:00, 0.51,8.0
2015-07-05 22:00, 0.47,8.0
2015-07-06 00:00, 0.56,8.0
2015-07-06 01:00, 0.71,8.0
2015-07-06 02:00, 0.59,8.0
2015-07-06 03:00, 0.59,8.0
2015-07-06 04:00, 0.61,6.4
2015-07-06 05:00, 0.51,6.4
2015-07-06 06:00, 0.41,5.3
2015-07-06 07:00, 0.41,6.4
2015-07-06 09:00, 0.36,8.0
2015-07-06 10:00, 0.50,10.7
2015-07-06 11:00, 0.46,8.0
2015-07-06 12:00, 0.37,8.0
2015-07-06 13:00, 0.61,8.0
2015-07-06 14:00, 0.50,8.0
2015-07-06 15:00, 0.47,8.0
2015-07-06 16:00, 0.40,8.0
2015-07-06 17:00, 0.43,6.4
2015-07-06 19:00, 0.40,8.0
2015-07-06 20:00, 0.43,8.0
2015-07-06 21:00, 0.47,8.0
2015-07-06 22:00, 0.45,8.0
2015-07-06 23:00, 0.49,8.0
2015-07-07 00:00, 0.48,8.0
2015-07-07 01:00, 0.58,8.0
2015-07-07 02:00, 0.44,2.9
2015-07-07 04:00, 0.47,6.4
2015-07-07 05:00, 0.44,6.4
2015-07-07 06:00, 0.44,8.0
2015-07-07 07:00, 0.41,8.0
2015-07-07 08:00, 0.38,8.0
2015-07-07 09:00, 0.40,8.0
2015-07-07 10:00, 0.39,8.0
2015-07-07 11:00, 0.33,2.7
2015-07-07 12:00, 0.34,2.7
2015-07-07 14:00, 0.42,8.0
2015-07-07 15:00, 0.55,6.4
2015-07-07 16:00, 0.55,2.9
2015-07-07 17:00, 0.60,2.9
2015-07-07 18:00, 0.78,3.2
2015-07-07 19:00, 0.68,3.6
2015-07-07 20:00, 0.80,4.0
2015-07-07 21:00, 0.86,4.6
2015-07-07 23:00, 0.66,4.0
2015-07-08 00:00, 0.74,4.0
2015-07-08 01:00, 0.63,4.0
2015-07-08 02:00, 0.55,4.0
2015-07-08 03:00, 0.63,4.0
2015-07-08 04:00, 0.46,3.6
2015-07-08 05:00, 0.58,3.6
2015-07-08 06:00, 0.64,4.0
2015-07-08 07:00, 0.55,4.0
2015-07-08 09:00, 0.58,4.0
2015-07-08 10:00, 0.60,4.0
2015-07-08 11:00, 0.49,4.0
2015-07-08 12:00, 0.47,4.6
2015-07-08 13:00, 0.46,4.0
2015-07-08 14:00, 0.43,4.6
2015-07-08 15:00, 0.39,4.0
2015-07-08 16:00, 0.38,2.9
2015-07-08 18:00, 0.32,4.0
2015-07-08 19:00, 0.40,8.0
2015-07-08 20:00, 0.39,10.7
2015-07-08 21:00, 0.31,5.3
2015-07-08 22:00, 0.43,10.7
2015-07-08 23:00, 0.45,10.7
2015-07-09 00:00, 0.23,4.6
2015-07-09 01:00, 0.22,4.6
2015-07-09 02:00, 0.40,10.7
2015-07-09 04:00, 0.40,10.7
2015-07-09 05:00, 0.53,8.0
2015-07-09 06:00, 0.66,8.0
2015-07-09 07:00, 0.50,2.9
2015-07-09 08:00, 0.54,3.2
2015-07-09 09:00, 0.56,3.2
2015-07-09 10:00, 0.72,10.7
2015-07-09 11:00,,
2015-07-09 13:00, 0.34,3.2
2015-07-09 14:00, 0.39,3.2
2015-07-09 15:00, 0.41,3.6
2015-07-09 16:00, 0.38,3.2
2015-07-09 17:00, 0.55,8.0
2015-07-09 18:00, 0.69,10.7
2015-07-09 19:00, 0.41,3.2
2015-07-09 20:00, 0.64,8.0
2015-07-09 22:00, 0.39,3.6
2015-07-09 23:00, 0.42,3.6
2015-07-10 00:00, 0.58,10.7
2015-07-10 01:00, 0.55,10.7
2015-07-10 02:00, 0.33,4.6
2015-07-10 03:00, 0.61,10.7
2015-07-10 04:00, 0.30,4.6
2015-07-10 05:00, 0.58,10.7
2015-07-10 06:00, 0.54,10.7
2015-07-10 08:00, 0.64,8.0
2015-07-10 09:00, 0.62,8.0
2015-07-10 10:00, 0.29,2.7
2015-07-10 11:00, 0.64,10.7
2015-07-10 12:00, 0.56,10.7
2015-07-10 13:00, 0.53,8.0
2015-07-10 14:00, 0.47,8.0
2015-07-10 15:00, 0.54,10.7
2015-07-10 17:00, 0.48,8.0
2015-07-10 18:00, 0.39,8.0
2015-07-10 19:00, 0.46,8.0
2015-07-10 20:00, 0.41,8.0
2015-07-10 21:00, 0.46,8.0
2015-07-10 22:00, 0.41,8.0
2015-07-10 23:00, 0.41,8.0
2015-07-11 00:00, 0.41,8.0
2015-07-11 01:00, 0.46,10.7
2015-07-11 03:00, 0.49,10.7
2015-07-11 04:00, 0.35,10.7
2015-07-11 05:00, 0.43,8.0
2015-07-11 06:00, 0.45,8.0
2015-07-11 07:00, 0.38,8.0
2015-07-11 08:00, 0.42,10.7
2015-07-11 09:00, 0.46,8.0
2015-07-11 10:00, 0.22,1.9
2015-07-11 12:00, 0.40,10.7
2015-07-11 13:00, 0.41,10.7
2015-07-11 14:00, 0.40,10.7
2015-07-11 15:00, 0.19,4.6
2015-07-11 16:00, 0.37,8.0
2015-07-11 17:00, 0.34,10.7
2015-07-11 18:00, 0.39,10.7
2015-07-11 19:00, 0.43,10.7
2015-07-11 20:00, 0.34,8.0
2015-07-11 22:00, 0.34,8.0
2015-07-11 23:00, 0.40,8.0
2015-07-12 00:00, 0.37,2.7
2015-07-12 01:00, 0.36,2.7
2015-07-12 02:00, 0.27,2.5
2015-07-12 03:00, 0.25,2.7
2015-07-12 04:00, 0.28,5.3
2015-07-12 05:00, 0.23,2.7
2015-07-12 07:00, 0.29,6.4
2015-07-12 08:00, 0.19,2.3
2015-07-12 09:00, 0.42,10.7
2015-07-12 10:00, 0.30,6.4
2015-07-12 11:00, 0.33,8.0
2015-07-12 12:00, 0.32,6.4
2015-07-12 13:00, 0.41,8.0
2015-07-12 14:00, 0.31,6.4
2015-07-12 16:00, 0.42,6.4
2015-07-12 17:00, 0.46,8.0
2015-07-12 18:00, 0.40,8.0
2015-07-12 19:00, 0.36,6.4
2015-07-12 20:00, 0.35,6.4
2015-07-12 21:00, 0.29,5.3
2015-07-12 22:00, 0.17,2.7
2015-07-12 23:00, 0.42,6.4
2015-07-13 00:00, 0.35,10.7
2015-07-13 02:00, 0.33,8.0
2015-07-13 03:00, 0.31,8.0
2015-07-13 04:00, 0.37,8.0
2015-07-13 05:00, 0.42,8.0
2015-07-13 06:00, 0.35,8.0
2015-07-13 07:00, 0.35,6.4
2015-07-13 08:00, 0.31,8.0
2015-07-13 09:00, 0.39,8.0
2015-07-13 11:00, 0.37,8.0
2015-07-13 12:00, 0.34,8.0
2015-07-13 13:00, 0.37,8.0
2015-07-13 14:00, 0.38,6.4
2015-07-13 15:00, 0.37,6.4
2015-07-13 16:00, 0.36,6.4
2015-07-13 17:00, 0.35,8.0
2015-07-13 18:00, 0.42,8.0
2015-07-13 19:00, 0.44,8.0
2015-07-13 21:00, 0.50,8.0
2015-07-13 22:00, 0.47,8.0
2015-07-13 23:00, 0.50,8.0
2015-07-14 00:00, 0.31,2.7
2015-07-14 01:00, 0.45,8.0
2015-07-14 02:00, 0.43,6.4
2015-07-14 03:00, 0.42,8.0
2015-07-14 04:00, 0.39,8.0
2015-07-14 06:00, 0.42,8.0
2015-07-14 07:00, 0.37,8.0
2015-07-14 08:00, 0.35,8.0